Location: Poughquag
(41.6090°N, 73.6820°W)
Time: 14:35:19
(UTC-04:00)

CUBEBUG 2 - Pass Details

Date: 27 May 2024
Orbit: 571 x 666 km, 97.8° (Epoch: 14 June)

Event Time Altitude Azimuth Distance (km) Brightness Sun altitude
Rises 02:52:33 0° 15° (NNE) 2,978 ? -21.1°
Reaches altitude 10° 02:54:46 10° 18° (NNE) 2,074 ? -20.9°
Maximum altitude 02:59:17 68° 101° (E) 714 ? -20.4°
Enters shadow 03:00:51 40° 171° (S) 983 ? -20.3°
